owner,sensor,date,latitude,longitude,relative_humidity,qcFlag 
COMPS,ioos:station:USF.COMPS:C13:1,2015-08-01T04:05:00Z,26.0630,-83.0730,78.39,1111122 
COMPS,ioos:station:USF.COMPS:C13:1,2015-08-01T04:35:00Z,26.0630,-83.0730,86.46,1111122 
COMPS,ioos:station:USF.COMPS:C13:1,2015-08-01T05:05:00Z,26.0630,-83.0730,83.51,1111122 
COMPS,ioos:station:USF.COMPS:C13:1,2015-08-01T05:35:00Z,26.0630,-83.0730,81.89,1111122 
COMPS,ioos:station:USF.COMPS:C13:1,2015-08-01T07:05:00Z,26.0630,-83.0730,77.47,1111122 
COMPS,ioos:station:USF.COMPS:C13:1,2015-08-01T07:35:00Z,26.0630,-83.0730,77.54,1111122 
COMPS,ioos:station:USF.COMPS:C13:1,2015-08-01T08:05:00Z,26.0630,-83.0730,79.56,1111122 
COMPS,ioos:station:USF.COMPS:C13:1,2015-08-01T08:35:00Z,26.0630,-83.0730,79.11,1111122 
COMPS,ioos:station:USF.COMPS:C13:1,2015-08-01T10:05:00Z,26.0630,-83.0730,85.07,1111122 
COMPS,ioos:station:USF.COMPS:C13:1,2015-08-01T10:35:00Z,26.0630,-83.0730,83.55,1111122 
COMPS,ioos:station:USF.COMPS:C13:1,2015-08-01T12:05:00Z,26.0630,-83.0730,81.3,1111122 
COMPS,ioos:station:USF.COMPS:C13:1,2015-08-01T12:35:00Z,26.0630,-83.0730,79.16,1111122 
COMPS,ioos:station:USF.COMPS:C13:1,2015-08-01T15:05:00Z,26.0630,-83.0730,77.08,1111122 
COMPS,ioos:station:USF.COMPS:C13:1,2015-08-01T15:35:00Z,26.0630,-83.0730,79.18,1111122 
COMPS,ioos:station:USF.COMPS:C13:1,2015-08-02T04:05:00Z,26.0630,-83.0730,76.04,1111122 
COMPS,ioos:station:USF.COMPS:C13:1,2015-08-02T04:35:00Z,26.0630,-83.0730,77.29,1111122 
COMPS,ioos:station:USF.COMPS:C13:1,2015-08-02T07:05:00Z,26.0630,-83.0730,80.58,1111122 
COMPS,ioos:station:USF.COMPS:C13:1,2015-08-02T07:35:00Z,26.0630,-83.0730,80.39,1111122 
COMPS,ioos:station:USF.COMPS:C13:1,2015-08-02T09:05:00Z,26.0630,-83.0730,78.44,1111122 
COMPS,ioos:station:USF.COMPS:C13:1,2015-08-02T09:35:00Z,26.0630,-83.0730,77.52,1111122 
COMPS,ioos:station:USF.COMPS:C13:1,2015-08-02T10:05:00Z,26.0630,-83.0730,76.51,1111122 
COMPS,ioos:station:USF.COMPS:C13:1,2015-08-02T10:35:00Z,26.0630,-83.0730,74.14,1111122 
COMPS,ioos:station:USF.COMPS:C13:1,2015-08-02T19:05:00Z,26.0630,-83.0730,74.83,1111122 
COMPS,ioos:station:USF.COMPS:C13:1,2015-08-02T19:35:00Z,26.0630,-83.0730,68.85,1111122 
COMPS,ioos:station:USF.COMPS:C13:1,2015-08-03T07:05:00Z,26.0630,-83.0730,59.75,1111122 
COMPS,ioos:station:USF.COMPS:C13:1,2015-08-03T07:35:00Z,26.0630,-83.0730,58.55,1111122 
COMPS,ioos:station:USF.COMPS:C13:1,2015-08-03T09:05:00Z,26.0630,-83.0730,64.19,1111122 
COMPS,ioos:station:USF.COMPS:C13:1,2015-08-03T09:35:00Z,26.0630,-83.0730,66.3,1111122 
COMPS,ioos:station:USF.COMPS:C13:1,2015-08-03T11:05:00Z,26.0630,-83.0730,67.95,1111122 
COMPS,ioos:station:USF.COMPS:C13:1,2015-08-03T11:35:00Z,26.0630,-83.0730,72.42,1111122 
COMPS,ioos:station:USF.COMPS:C13:1,2015-08-03T15:05:00Z,26.0630,-83.0730,60.03,1111122 
COMPS,ioos:station:USF.COMPS:C13:1,2015-08-03T15:35:00Z,26.0630,-83.0730,79.25,1111122 
COMPS,ioos:station:USF.COMPS:C13:1,2015-08-03T16:05:00Z,26.0630,-83.0730,71.91,1111122 
COMPS,ioos:station:USF.COMPS:C13:1,2015-08-03T16:35:00Z,26.0630,-83.0730,81.36,1111122 
COMPS,ioos:station:USF.COMPS:C13:1,2015-08-03T17:05:00Z,26.0630,-83.0730,83.61,1111122 
COMPS,ioos:station:USF.COMPS:C13:1,2015-08-03T17:35:00Z,26.0630,-83.0730,84.3,1111122 
COMPS,ioos:station:USF.COMPS:C13:1,2015-08-03T18:05:00Z,26.0630,-83.0730,78.76,1111122 
COMPS,ioos:station:USF.COMPS:C13:1,2015-08-03T18:35:00Z,26.0630,-83.0730,81.27,1111122 
COMPS,ioos:station:USF.COMPS:C13:1,2015-08-03T19:05:00Z,26.0630,-83.0730,79.42,1111122 
COMPS,ioos:station:USF.COMPS:C13:1,2015-08-03T19:35:00Z,26.0630,-83.0730,76.59,1111122 
COMPS,ioos:station:USF.COMPS:C13:1,2015-08-03T20:05:00Z,26.0630,-83.0730,71.51,1111122 
COMPS,ioos:station:USF.COMPS:C13:1,2015-08-03T20:35:00Z,26.0630,-83.0730,70.16,1111122 
COMPS,ioos:station:USF.COMPS:C13:1,2015-08-03T21:05:00Z,26.0630,-83.0730,70.59,1111122 
COMPS,ioos:station:USF.COMPS:C13:1,2015-08-03T21:35:00Z,26.0630,-83.0730,70.35,1111122 
COMPS,ioos:station:USF.COMPS:C13:1,2015-08-03T22:05:00Z,26.0630,-83.0730,70.72,1111122 
COMPS,ioos:station:USF.COMPS:C13:1,2015-08-03T22:35:00Z,26.0630,-83.0730,69.72,1111122 
COMPS,ioos:station:USF.COMPS:C13:1,2015-08-03T23:05:00Z,26.0630,-83.0730,70.43,1111122 
COMPS,ioos:station:USF.COMPS:C13:1,2015-08-03T23:35:00Z,26.0630,-83.0730,70.91,1111122 
COMPS,ioos:station:USF.COMPS:C13:1,2015-08-04T00:05:00Z,26.0630,-83.0730,71.3,1111122 
COMPS,ioos:station:USF.COMPS:C13:1,2015-08-04T00:35:00Z,26.0630,-83.0730,71.14,1111122 
COMPS,ioos:station:USF.COMPS:C13:1,2015-08-04T04:05:00Z,26.0630,-83.0730,73.59,1111122 
COMPS,ioos:station:USF.COMPS:C13:1,2015-08-04T04:35:00Z,26.0630,-83.0730,75.48,1111122 
COMPS,ioos:station:USF.COMPS:C13:1,2015-08-04T05:05:00Z,26.0630,-83.0730,74.13,1111122 
COMPS,ioos:station:USF.COMPS:C13:1,2015-08-04T05:35:00Z,26.0630,-83.0730,76.73,1111122 
COMPS,ioos:station:USF.COMPS:C13:1,2015-08-04T06:05:00Z,26.0630,-83.0730,74.14,1111122 
COMPS,ioos:station:USF.COMPS:C13:1,2015-08-04T06:35:00Z,26.0630,-83.0730,75.69,1111122 
COMPS,ioos:station:USF.COMPS:C13:1,2015-08-04T07:05:00Z,26.0630,-83.0730,77.35,1111122 
COMPS,ioos:station:USF.COMPS:C13:1,2015-08-04T07:35:00Z,26.0630,-83.0730,75.96,1111122 
COMPS,ioos:station:USF.COMPS:C13:1,2015-08-04T08:05:00Z,26.0630,-83.0730,78.39,1111122 
COMPS,ioos:station:USF.COMPS:C13:1,2015-08-04T08:35:00Z,26.0630,-83.0730,77.78,1111122 
COMPS,ioos:station:USF.COMPS:C13:1,2015-08-04T09:05:00Z,26.0630,-83.0730,77.83,1111122 
COMPS,ioos:station:USF.COMPS:C13:1,2015-08-04T09:35:00Z,26.0630,-83.0730,79.06,1111122 
COMPS,ioos:station:USF.COMPS:C13:1,2015-08-04T10:05:00Z,26.0630,-83.0730,77.49,1111122 
COMPS,ioos:station:USF.COMPS:C13:1,2015-08-04T10:35:00Z,26.0630,-83.0730,76.94,1111122 
COMPS,ioos:station:USF.COMPS:C13:1,2015-08-04T11:05:00Z,26.0630,-83.0730,77.08,1111122 
COMPS,ioos:station:USF.COMPS:C13:1,2015-08-04T11:35:00Z,26.0630,-83.0730,76.97,1111122 
COMPS,ioos:station:USF.COMPS:C13:1,2015-08-04T12:05:00Z,26.0630,-83.0730,75.99,1111122 
COMPS,ioos:station:USF.COMPS:C13:1,2015-08-04T12:35:00Z,26.0630,-83.0730,75.58,1111122 
COMPS,ioos:station:USF.COMPS:C13:1,2015-08-04T13:05:00Z,26.0630,-83.0730,74.83,1111122 
COMPS,ioos:station:USF.COMPS:C13:1,2015-08-04T13:35:00Z,26.0630,-83.0730,74.64,1111122 
COMPS,ioos:station:USF.COMPS:C13:1,2015-08-04T14:05:00Z,26.0630,-83.0730,73.68,1111122 
COMPS,ioos:station:USF.COMPS:C13:1,2015-08-04T14:35:00Z,26.0630,-83.0730,73.97,1111122 
COMPS,ioos:station:USF.COMPS:C13:1,2015-08-04T15:05:00Z,26.0630,-83.0730,73.87,1111122 
COMPS,ioos:station:USF.COMPS:C13:1,2015-08-04T15:35:00Z,26.0630,-83.0730,73.28,1111122 
COMPS,ioos:station:USF.COMPS:C13:1,2015-08-04T16:05:00Z,26.0630,-83.0730,74.07,1111122 
COMPS,ioos:station:USF.COMPS:C13:1,2015-08-04T16:35:00Z,26.0630,-83.0730,73.11,1111122 
COMPS,ioos:station:USF.COMPS:C13:1,2015-08-04T17:05:00Z,26.0630,-83.0730,72.5,1111122 
COMPS,ioos:station:USF.COMPS:C13:1,2015-08-04T17:35:00Z,26.0630,-83.0730,71.52,1111122 
COMPS,ioos:station:USF.COMPS:C13:1,2015-08-04T18:05:00Z,26.0630,-83.0730,71.55,1111122 
COMPS,ioos:station:USF.COMPS:C13:1,2015-08-04T18:35:00Z,26.0630,-83.0730,71.5,1111122 
COMPS,ioos:station:USF.COMPS:C13:1,2015-08-04T19:05:00Z,26.0630,-83.0730,71.05,1111122 
COMPS,ioos:station:USF.COMPS:C13:1,2015-08-04T19:35:00Z,26.0630,-83.0730,69.7,1111122 
COMPS,ioos:station:USF.COMPS:C13:1,2015-08-04T20:05:00Z,26.0630,-83.0730,68.71,1111122 
COMPS,ioos:station:USF.COMPS:C13:1,2015-08-04T20:35:00Z,26.0630,-83.0730,68.78,1111122 
COMPS,ioos:station:USF.COMPS:C13:1,2015-08-04T21:05:00Z,26.0630,-83.0730,71.09,1111122 
COMPS,ioos:station:USF.COMPS:C13:1,2015-08-04T21:35:00Z,26.0630,-83.0730,70.6,1111122 
COMPS,ioos:station:USF.COMPS:C13:1,2015-08-04T22:05:00Z,26.0630,-83.0730,70.16,1111122 
COMPS,ioos:station:USF.COMPS:C13:1,2015-08-04T22:35:00Z,26.0630,-83.0730,69.63,1111122 
COMPS,ioos:station:USF.COMPS:C13:1,2015-08-05T00:05:00Z,26.0630,-83.0730,69.33,1111122 
COMPS,ioos:station:USF.COMPS:C13:1,2015-08-05T00:35:00Z,26.0630,-83.0730,68.18,1111122 
COMPS,ioos:station:USF.COMPS:C13:1,2015-08-05T04:05:00Z,26.0630,-83.0730,68.79,1111122 
COMPS,ioos:station:USF.COMPS:C13:1,2015-08-05T04:35:00Z,26.0630,-83.0730,71.17,1111122 
COMPS,ioos:station:USF.COMPS:C13:1,2015-08-05T05:05:00Z,26.0630,-83.0730,72.84,1111122 
COMPS,ioos:station:USF.COMPS:C13:1,2015-08-05T05:35:00Z,26.0630,-83.0730,74.31,1111122 
COMPS,ioos:station:USF.COMPS:C13:1,2015-08-05T06:05:00Z,26.0630,-83.0730,76.47,1111122 
COMPS,ioos:station:USF.COMPS:C13:1,2015-08-05T06:35:00Z,26.0630,-83.0730,77.55,1111122 
COMPS,ioos:station:USF.COMPS:C13:1,2015-08-05T07:05:00Z,26.0630,-83.0730,78.4,1111122 
COMPS,ioos:station:USF.COMPS:C13:1,2015-08-05T07:35:00Z,26.0630,-83.0730,79.13,1111122 
COMPS,ioos:station:USF.COMPS:C13:1,2015-08-05T08:05:00Z,26.0630,-83.0730,79.18,1111122 
COMPS,ioos:station:USF.COMPS:C13:1,2015-08-05T08:35:00Z,26.0630,-83.0730,79.1,1111122 
COMPS,ioos:station:USF.COMPS:C13:1,2015-08-05T09:05:00Z,26.0630,-83.0730,79.29,1111122 
COMPS,ioos:station:USF.COMPS:C13:1,2015-08-05T09:35:00Z,26.0630,-83.0730,79.35,1111122 
COMPS,ioos:station:USF.COMPS:C13:1,2015-08-05T10:05:00Z,26.0630,-83.0730,80.09,1111122 
COMPS,ioos:station:USF.COMPS:C13:1,2015-08-05T10:35:00Z,26.0630,-83.0730,78.42,1111122 
COMPS,ioos:station:USF.COMPS:C13:1,2015-08-05T12:05:00Z,26.0630,-83.0730,88.14,1111122 
COMPS,ioos:station:USF.COMPS:C13:1,2015-08-05T12:35:00Z,26.0630,-83.0730,82.18,1111122 
COMPS,ioos:station:USF.COMPS:C13:1,2015-08-05T13:05:00Z,26.0630,-83.0730,81.1,1111122 
COMPS,ioos:station:USF.COMPS:C13:1,2015-08-05T13:35:00Z,26.0630,-83.0730,83.35,1111122 
COMPS,ioos:station:USF.COMPS:C13:1,2015-08-05T14:05:00Z,26.0630,-83.0730,82.41,1111122 
COMPS,ioos:station:USF.COMPS:C13:1,2015-08-05T14:35:00Z,26.0630,-83.0730,80.12,1111122 
COMPS,ioos:station:USF.COMPS:C13:1,2015-08-05T15:05:00Z,26.0630,-83.0730,83.32,1111122 
COMPS,ioos:station:USF.COMPS:C13:1,2015-08-05T15:35:00Z,26.0630,-83.0730,83.79,1111122 
COMPS,ioos:station:USF.COMPS:C13:1,2015-08-05T16:05:00Z,26.0630,-83.0730,84.47,1111122 
COMPS,ioos:station:USF.COMPS:C13:1,2015-08-05T16:35:00Z,26.0630,-83.0730,81.75,1111122 
COMPS,ioos:station:USF.COMPS:C13:1,2015-08-05T17:05:00Z,26.0630,-83.0730,81.55,1111122 
COMPS,ioos:station:USF.COMPS:C13:1,2015-08-05T17:35:00Z,26.0630,-83.0730,81.25,1111122 
COMPS,ioos:station:USF.COMPS:C13:1,2015-08-05T18:05:00Z,26.0630,-83.0730,82.2,1111122 
COMPS,ioos:station:USF.COMPS:C13:1,2015-08-05T18:35:00Z,26.0630,-83.0730,83.27,1111122 
COMPS,ioos:station:USF.COMPS:C13:1,2015-08-05T19:05:00Z,26.0630,-83.0730,78.86,1111122 
COMPS,ioos:station:USF.COMPS:C13:1,2015-08-05T19:35:00Z,26.0630,-83.0730,79.63,1111122 
COMPS,ioos:station:USF.COMPS:C13:1,2015-08-05T20:05:00Z,26.0630,-83.0730,78.3,1111122 
COMPS,ioos:station:USF.COMPS:C13:1,2015-08-05T20:35:00Z,26.0630,-83.0730,74.87,1111122 
COMPS,ioos:station:USF.COMPS:C13:1,2015-08-05T21:05:00Z,26.0630,-83.0730,77.67,1111122 
COMPS,ioos:station:USF.COMPS:C13:1,2015-08-05T21:35:00Z,26.0630,-83.0730,79.22,1111122 
COMPS,ioos:station:USF.COMPS:C13:1,2015-08-05T22:05:00Z,26.0630,-83.0730,79.43,1111122 
COMPS,ioos:station:USF.COMPS:C13:1,2015-08-05T22:35:00Z,26.0630,-83.0730,78.03,1111122 
COMPS,ioos:station:USF.COMPS:C13:1,2015-08-05T23:05:00Z,26.0630,-83.0730,77.16,1111122 
COMPS,ioos:station:USF.COMPS:C13:1,2015-08-05T23:35:00Z,26.0630,-83.0730,75.96,1111122 
COMPS,ioos:station:USF.COMPS:C13:1,2015-08-06T00:05:00Z,26.0630,-83.0730,77.11,1111122 
COMPS,ioos:station:USF.COMPS:C13:1,2015-08-06T00:35:00Z,26.0630,-83.0730,77.92,1111122 
COMPS,ioos:station:USF.COMPS:C13:1,2015-08-06T01:05:00Z,26.0630,-83.0730,79.05,1111122 
COMPS,ioos:station:USF.COMPS:C13:1,2015-08-06T01:35:00Z,26.0630,-83.0730,79.47,1111122 
COMPS,ioos:station:USF.COMPS:C13:1,2015-08-06T04:05:00Z,26.0630,-83.0730,80.86,1111122 
COMPS,ioos:station:USF.COMPS:C13:1,2015-08-06T04:35:00Z,26.0630,-83.0730,79.55,1111122 
COMPS,ioos:station:USF.COMPS:C13:1,2015-08-06T05:05:00Z,26.0630,-83.0730,80.48,1111122 
COMPS,ioos:station:USF.COMPS:C13:1,2015-08-06T05:35:00Z,26.0630,-83.0730,78.62,1111122 
COMPS,ioos:station:USF.COMPS:C13:1,2015-08-06T06:05:00Z,26.0630,-83.0730,79.4,1111122 
COMPS,ioos:station:USF.COMPS:C13:1,2015-08-06T06:35:00Z,26.0630,-83.0730,79.97,1111122 
COMPS,ioos:station:USF.COMPS:C13:1,2015-08-06T07:05:00Z,26.0630,-83.0730,81.17,1111122 
COMPS,ioos:station:USF.COMPS:C13:1,2015-08-06T07:35:00Z,26.0630,-83.0730,82.06,1111122 
COMPS,ioos:station:USF.COMPS:C13:1,2015-08-06T08:05:00Z,26.0630,-83.0730,81.84,1111122 
COMPS,ioos:station:USF.COMPS:C13:1,2015-08-06T08:35:00Z,26.0630,-83.0730,83.05,1111122 
COMPS,ioos:station:USF.COMPS:C13:1,2015-08-06T09:05:00Z,26.0630,-83.0730,83.12,1111122 
COMPS,ioos:station:USF.COMPS:C13:1,2015-08-06T09:35:00Z,26.0630,-83.0730,83.8,1111122 
COMPS,ioos:station:USF.COMPS:C13:1,2015-08-06T10:05:00Z,26.0630,-83.0730,84.02,1111122 
COMPS,ioos:station:USF.COMPS:C13:1,2015-08-06T10:35:00Z,26.0630,-83.0730,83.58,1111122 
COMPS,ioos:station:USF.COMPS:C13:1,2015-08-06T11:05:00Z,26.0630,-83.0730,82.66,1111122 
COMPS,ioos:station:USF.COMPS:C13:1,2015-08-06T11:35:00Z,26.0630,-83.0730,79.92,1111122 
COMPS,ioos:station:USF.COMPS:C13:1,2015-08-06T12:05:00Z,26.0630,-83.0730,80.04,1111122 
COMPS,ioos:station:USF.COMPS:C13:1,2015-08-06T12:35:00Z,26.0630,-83.0730,80.05,1111122 
COMPS,ioos:station:USF.COMPS:C13:1,2015-08-06T15:05:00Z,26.0630,-83.0730,75.89,1111122 
COMPS,ioos:station:USF.COMPS:C13:1,2015-08-06T15:35:00Z,26.0630,-83.0730,77.19,1111122 
COMPS,ioos:station:USF.COMPS:C13:1,2015-08-06T19:05:00Z,26.0630,-83.0730,72.19,1111122 
COMPS,ioos:station:USF.COMPS:C13:1,2015-08-06T19:35:00Z,26.0630,-83.0730,73.14,1111122 
COMPS,ioos:station:USF.COMPS:C13:1,2015-08-06T20:05:00Z,26.0630,-83.0730,73.06,1111122 
COMPS,ioos:station:USF.COMPS:C13:1,2015-08-06T20:35:00Z,26.0630,-83.0730,73.31,1111122 
COMPS,ioos:station:USF.COMPS:C13:1,2015-08-06T23:05:00Z,26.0630,-83.0730,70.75,1111122 
COMPS,ioos:station:USF.COMPS:C13:1,2015-08-06T23:35:00Z,26.0630,-83.0730,70.65,1111122 
COMPS,ioos:station:USF.COMPS:C13:1,2015-08-07T00:05:00Z,26.0630,-83.0730,73.64,1111122 
COMPS,ioos:station:USF.COMPS:C13:1,2015-08-07T00:35:00Z,26.0630,-83.0730,75.35,1111122 
COMPS,ioos:station:USF.COMPS:C13:1,2015-08-07T01:05:00Z,26.0630,-83.0730,75.58,1111122 
COMPS,ioos:station:USF.COMPS:C13:1,2015-08-07T01:35:00Z,26.0630,-83.0730,76.03,1111122 
COMPS,ioos:station:USF.COMPS:C13:1,2015-08-07T02:05:00Z,26.0630,-83.0730,75.98,1111122 
COMPS,ioos:station:USF.COMPS:C13:1,2015-08-07T02:35:00Z,26.0630,-83.0730,76.64,1111122 
COMPS,ioos:station:USF.COMPS:C13:1,2015-08-07T04:05:00Z,26.0630,-83.0730,77.81,1111122 
COMPS,ioos:station:USF.COMPS:C13:1,2015-08-07T04:35:00Z,26.0630,-83.0730,78.48,1111122 
COMPS,ioos:station:USF.COMPS:C13:1,2015-08-07T05:05:00Z,26.0630,-83.0730,79.6,1111122 
COMPS,ioos:station:USF.COMPS:C13:1,2015-08-07T05:35:00Z,26.0630,-83.0730,79.44,1111122 
COMPS,ioos:station:USF.COMPS:C13:1,2015-08-07T06:05:00Z,26.0630,-83.0730,80.21,1111122 
COMPS,ioos:station:USF.COMPS:C13:1,2015-08-07T06:35:00Z,26.0630,-83.0730,81.44,1111122 
COMPS,ioos:station:USF.COMPS:C13:1,2015-08-07T07:05:00Z,26.0630,-83.0730,80.07,1111122 
COMPS,ioos:station:USF.COMPS:C13:1,2015-08-07T07:35:00Z,26.0630,-83.0730,80.03,1111122 
COMPS,ioos:station:USF.COMPS:C13:1,2015-08-07T08:05:00Z,26.0630,-83.0730,79.03,1111122 
COMPS,ioos:station:USF.COMPS:C13:1,2015-08-07T08:35:00Z,26.0630,-83.0730,78.55,1111122 
COMPS,ioos:station:USF.COMPS:C13:1,2015-08-07T09:05:00Z,26.0630,-83.0730,77.37,1111122 
COMPS,ioos:station:USF.COMPS:C13:1,2015-08-07T09:35:00Z,26.0630,-83.0730,75.76,1111122 
COMPS,ioos:station:USF.COMPS:C13:1,2015-08-07T10:05:00Z,26.0630,-83.0730,75.4,1111122 
COMPS,ioos:station:USF.COMPS:C13:1,2015-08-07T10:35:00Z,26.0630,-83.0730,72.66,1111122 
COMPS,ioos:station:USF.COMPS:C13:1,2015-08-07T11:05:00Z,26.0630,-83.0730,74.35,1111122 
COMPS,ioos:station:USF.COMPS:C13:1,2015-08-07T11:35:00Z,26.0630,-83.0730,75.92,1111122 
COMPS,ioos:station:USF.COMPS:C13:1,2015-08-07T12:05:00Z,26.0630,-83.0730,75.87,1111122 
COMPS,ioos:station:USF.COMPS:C13:1,2015-08-07T12:35:00Z,26.0630,-83.0730,76.02,1111122 
COMPS,ioos:station:USF.COMPS:C13:1,2015-08-07T13:05:00Z,26.0630,-83.0730,76.59,1111122 
COMPS,ioos:station:USF.COMPS:C13:1,2015-08-07T13:35:00Z,26.0630,-83.0730,74.06,1111122 
COMPS,ioos:station:USF.COMPS:C13:1,2015-08-07T14:05:00Z,26.0630,-83.0730,73.49,1111122 
COMPS,ioos:station:USF.COMPS:C13:1,2015-08-07T14:35:00Z,26.0630,-83.0730,72.74,1111122 
COMPS,ioos:station:USF.COMPS:C13:1,2015-08-07T15:05:00Z,26.0630,-83.0730,72.65,1111122 
COMPS,ioos:station:USF.COMPS:C13:1,2015-08-07T15:35:00Z,26.0630,-83.0730,73.97,1111122 
COMPS,ioos:station:USF.COMPS:C13:1,2015-08-07T17:05:00Z,26.0630,-83.0730,73.23,1111122 
COMPS,ioos:station:USF.COMPS:C13:1,2015-08-07T17:35:00Z,26.0630,-83.0730,72.45,1111122 
COMPS,ioos:station:USF.COMPS:C13:1,2015-08-07T18:05:00Z,26.0630,-83.0730,72.79,1111122 
COMPS,ioos:station:USF.COMPS:C13:1,2015-08-07T18:35:00Z,26.0630,-83.0730,72.6,1111122 
COMPS,ioos:station:USF.COMPS:C13:1,2015-08-07T19:05:00Z,26.0630,-83.0730,72.64,1111122 
COMPS,ioos:station:USF.COMPS:C13:1,2015-08-07T19:35:00Z,26.0630,-83.0730,72.32,1111122 
COMPS,ioos:station:USF.COMPS:C13:1,2015-08-07T21:05:00Z,26.0630,-83.0730,72.21,1111122 
COMPS,ioos:station:USF.COMPS:C13:1,2015-08-07T21:35:00Z,26.0630,-83.0730,75.53,1111122 
COMPS,ioos:station:USF.COMPS:C13:1,2015-08-07T22:05:00Z,26.0630,-83.0730,75.3,1111122 
COMPS,ioos:station:USF.COMPS:C13:1,2015-08-07T22:35:00Z,26.0630,-83.0730,73.35,1111122 
COMPS,ioos:station:USF.COMPS:C13:1,2015-08-07T23:05:00Z,26.0630,-83.0730,76.06,1111122 
COMPS,ioos:station:USF.COMPS:C13:1,2015-08-07T23:35:00Z,26.0630,-83.0730,76.99,1111122 
COMPS,ioos:station:USF.COMPS:C13:1,2015-08-08T00:05:00Z,26.0630,-83.0730,77.04,1111122 
COMPS,ioos:station:USF.COMPS:C13:1,2015-08-08T00:35:00Z,26.0630,-83.0730,77.2,1111122 
COMPS,ioos:station:USF.COMPS:C13:1,2015-08-08T01:05:00Z,26.0630,-83.0730,77.7,1111122 
COMPS,ioos:station:USF.COMPS:C13:1,2015-08-08T01:35:00Z,26.0630,-83.0730,78.28,1111122 
COMPS,ioos:station:USF.COMPS:C13:1,2015-08-08T04:05:00Z,26.0630,-83.0730,78.85,1111122 
COMPS,ioos:station:USF.COMPS:C13:1,2015-08-08T04:35:00Z,26.0630,-83.0730,79.45,1111122 
COMPS,ioos:station:USF.COMPS:C13:1,2015-08-08T05:05:00Z,26.0630,-83.0730,78.53,1111122 
COMPS,ioos:station:USF.COMPS:C13:1,2015-08-08T05:35:00Z,26.0630,-83.0730,78.24,1111122 
COMPS,ioos:station:USF.COMPS:C13:1,2015-08-08T06:05:00Z,26.0630,-83.0730,77.46,1111122 
COMPS,ioos:station:USF.COMPS:C13:1,2015-08-08T06:35:00Z,26.0630,-83.0730,77.87,1111122 
COMPS,ioos:station:USF.COMPS:C13:1,2015-08-08T10:05:00Z,26.0630,-83.0730,79.5,1111122 
COMPS,ioos:station:USF.COMPS:C13:1,2015-08-08T10:35:00Z,26.0630,-83.0730,78.02,1111122 
COMPS,ioos:station:USF.COMPS:C13:1,2015-08-08T11:05:00Z,26.0630,-83.0730,77.33,1111122 
COMPS,ioos:station:USF.COMPS:C13:1,2015-08-08T11:35:00Z,26.0630,-83.0730,76.81,1111122 
COMPS,ioos:station:USF.COMPS:C13:1,2015-08-08T12:05:00Z,26.0630,-83.0730,74.59,1111122 
COMPS,ioos:station:USF.COMPS:C13:1,2015-08-08T12:35:00Z,26.0630,-83.0730,73.15,1111122 
COMPS,ioos:station:USF.COMPS:C13:1,2015-08-08T13:05:00Z,26.0630,-83.0730,72.89,1111122 
COMPS,ioos:station:USF.COMPS:C13:1,2015-08-08T13:35:00Z,26.0630,-83.0730,74.37,1111122 
COMPS,ioos:station:USF.COMPS:C13:1,2015-08-08T14:05:00Z,26.0630,-83.0730,75.14,1111122 
COMPS,ioos:station:USF.COMPS:C13:1,2015-08-08T14:35:00Z,26.0630,-83.0730,76.49,1111122 
COMPS,ioos:station:USF.COMPS:C13:1,2015-08-08T15:05:00Z,26.0630,-83.0730,76.56,1111122 
COMPS,ioos:station:USF.COMPS:C13:1,2015-08-08T15:35:00Z,26.0630,-83.0730,75.53,1111122 
COMPS,ioos:station:USF.COMPS:C13:1,2015-08-08T20:05:00Z,26.0630,-83.0730,75.08,1111122 
COMPS,ioos:station:USF.COMPS:C13:1,2015-08-08T20:35:00Z,26.0630,-83.0730,76.23,1111122 
COMPS,ioos:station:USF.COMPS:C13:1,2015-08-08T21:05:00Z,26.0630,-83.0730,78.71,1111122 
COMPS,ioos:station:USF.COMPS:C13:1,2015-08-08T21:35:00Z,26.0630,-83.0730,87.52,1111122 
COMPS,ioos:station:USF.COMPS:C13:1,2015-08-08T22:05:00Z,26.0630,-83.0730,87.64,1111122 
COMPS,ioos:station:USF.COMPS:C13:1,2015-08-08T22:35:00Z,26.0630,-83.0730,86.34,1111122 
COMPS,ioos:station:USF.COMPS:C13:1,2015-08-09T04:05:00Z,26.0630,-83.0730,83.71,1111122 
COMPS,ioos:station:USF.COMPS:C13:1,2015-08-09T04:35:00Z,26.0630,-83.0730,81.92,1111122 
COMPS,ioos:station:USF.COMPS:C13:1,2015-08-09T05:05:00Z,26.0630,-83.0730,81.07,1111122 
COMPS,ioos:station:USF.COMPS:C13:1,2015-08-09T05:35:00Z,26.0630,-83.0730,79.59,1111122 
COMPS,ioos:station:USF.COMPS:C13:1,2015-08-09T07:05:00Z,26.0630,-83.0730,78.91,1111122 
COMPS,ioos:station:USF.COMPS:C13:1,2015-08-09T07:35:00Z,26.0630,-83.0730,73.32,1111122 
COMPS,ioos:station:USF.COMPS:C13:1,2015-08-09T09:05:00Z,26.0630,-83.0730,75.76,1111122 
COMPS,ioos:station:USF.COMPS:C13:1,2015-08-09T09:35:00Z,26.0630,-83.0730,78.5,1111122 
COMPS,ioos:station:USF.COMPS:C13:1,2015-08-09T11:05:00Z,26.0630,-83.0730,78.95,1111122 
COMPS,ioos:station:USF.COMPS:C13:1,2015-08-09T11:35:00Z,26.0630,-83.0730,78.87,1111122 
COMPS,ioos:station:USF.COMPS:C13:1,2015-08-09T14:05:00Z,26.0630,-83.0730,78.8,1111122 
COMPS,ioos:station:USF.COMPS:C13:1,2015-08-09T14:35:00Z,26.0630,-83.0730,78.61,1111122 
COMPS,ioos:station:USF.COMPS:C13:1,2015-08-10T00:05:00Z,26.0630,-83.0730,84.33,1111122 
COMPS,ioos:station:USF.COMPS:C13:1,2015-08-10T00:35:00Z,26.0630,-83.0730,84.42,1111122 
COMPS,ioos:station:USF.COMPS:C13:1,2015-08-10T04:05:00Z,26.0630,-83.0730,85.59,1111122 
COMPS,ioos:station:USF.COMPS:C13:1,2015-08-10T04:35:00Z,26.0630,-83.0730,83.03,1111122 
COMPS,ioos:station:USF.COMPS:C13:1,2015-08-10T05:05:00Z,26.0630,-83.0730,84.99,1111122 
COMPS,ioos:station:USF.COMPS:C13:1,2015-08-10T05:35:00Z,26.0630,-83.0730,84.28,1111122 
COMPS,ioos:station:USF.COMPS:C13:1,2015-08-10T06:05:00Z,26.0630,-83.0730,82.23,1111122 
COMPS,ioos:station:USF.COMPS:C13:1,2015-08-10T06:35:00Z,26.0630,-83.0730,86.72,1111122 
COMPS,ioos:station:USF.COMPS:C13:1,2015-08-10T07:05:00Z,26.0630,-83.0730,86.06,1111122 
COMPS,ioos:station:USF.COMPS:C13:1,2015-08-10T07:35:00Z,26.0630,-83.0730,83.62,1111122 
COMPS,ioos:station:USF.COMPS:C13:1,2015-08-10T08:05:00Z,26.0630,-83.0730,82.67,1111122 
COMPS,ioos:station:USF.COMPS:C13:1,2015-08-10T08:35:00Z,26.0630,-83.0730,81.82,1111122 
COMPS,ioos:station:USF.COMPS:C13:1,2015-08-10T09:05:00Z,26.0630,-83.0730,80.06,1111122 
COMPS,ioos:station:USF.COMPS:C13:1,2015-08-10T09:35:00Z,26.0630,-83.0730,79.11,1111122 
COMPS,ioos:station:USF.COMPS:C13:1,2015-08-10T10:05:00Z,26.0630,-83.0730,78.85,1111122 
COMPS,ioos:station:USF.COMPS:C13:1,2015-08-10T10:35:00Z,26.0630,-83.0730,76.42,1111122 
COMPS,ioos:station:USF.COMPS:C13:1,2015-08-10T11:05:00Z,26.0630,-83.0730,79.08,1111122 
COMPS,ioos:station:USF.COMPS:C13:1,2015-08-10T11:35:00Z,26.0630,-83.0730,78.23,1111122 
COMPS,ioos:station:USF.COMPS:C13:1,2015-08-10T12:05:00Z,26.0630,-83.0730,78.1,1111122 
COMPS,ioos:station:USF.COMPS:C13:1,2015-08-10T12:35:00Z,26.0630,-83.0730,77.43,1111122 
COMPS,ioos:station:USF.COMPS:C13:1,2015-08-10T13:05:00Z,26.0630,-83.0730,75.12,1111122 
COMPS,ioos:station:USF.COMPS:C13:1,2015-08-10T13:35:00Z,26.0630,-83.0730,73.15,1111122 
COMPS,ioos:station:USF.COMPS:C13:1,2015-08-10T14:05:00Z,26.0630,-83.0730,71.47,1111122 
COMPS,ioos:station:USF.COMPS:C13:1,2015-08-10T14:35:00Z,26.0630,-83.0730,71.93,1111122 
COMPS,ioos:station:USF.COMPS:C13:1,2015-08-10T15:05:00Z,26.0630,-83.0730,76.13,1111122 
COMPS,ioos:station:USF.COMPS:C13:1,2015-08-10T15:35:00Z,26.0630,-83.0730,72.37,1111122 
COMPS,ioos:station:USF.COMPS:C13:1,2015-08-10T16:05:00Z,26.0630,-83.0730,76.04,1111122 
COMPS,ioos:station:USF.COMPS:C13:1,2015-08-10T16:35:00Z,26.0630,-83.0730,75.63,1111122 
COMPS,ioos:station:USF.COMPS:C13:1,2015-08-10T17:05:00Z,26.0630,-83.0730,75.36,1111122 
COMPS,ioos:station:USF.COMPS:C13:1,2015-08-10T17:35:00Z,26.0630,-83.0730,75.55,1111122 
COMPS,ioos:station:USF.COMPS:C13:1,2015-08-10T18:05:00Z,26.0630,-83.0730,74.93,1111122 
COMPS,ioos:station:USF.COMPS:C13:1,2015-08-10T18:35:00Z,26.0630,-83.0730,74.62,1111122 